Tracking 32938 objects as of 13-Jan-2026
HD Live streaming from Space Station
objects crossing your sky now

STARLINK-5215

Track STARLINK-5215 now!
10-day predictions
STARLINK-5215 is classified as:


NORAD ID: 54759
Int'l Code: 2022-175B
Perigee: 546.0 km
Apogee: 547.8 km
Inclination: 53.2 °
Period: 95.4 minutes
Semi major axis: 6917 km
RCS: Unknown
Launch date: December 17, 2022
Source: United States (US)
Launch site: AIR FORCE EASTERN TEST RANGE (AFETR)
Your satellite tracking list
Your tracking list is empty




NASA's NSSDC Master Catalog

Two Line Element Set (TLE):
1 54759U 22175B   26012.50265271  .00000488  00000-0  48753-4 0  9997
2 54759  53.2173 291.5817 0001263  89.0130 271.1007 15.08841028171508
Source of the keplerian elements: AFSPC